Regional Weather Roundup
Issued by NWS

Home | Current Version | Previous Version | Graphics & Text | Print | Product List | Glossary On
Versions: 1 2 3 4 5 6 7 8 9 10 11 12 13 14 15 16 17 18 19 20 21 22 23 24 25 26 27 28 29 30 31 32 33 34 35 36 37 38 39 40 41 42 43 44 45 46 47 48 49 50
000
ASUS45 KBOU 250107
RWRCO

WEATHER ROUNDUP FOR COLORADO
NATIONAL WEATHER SERVICE DENVER/BOULDER CO
700 PM MDT FRI APR 24 2015

NOTE: "FAIR" INDICATES FEW OR NO CLOUDS BELOW 12000 FEET WITH NO
SIGNIFICANT WEATHER AND/OR OBSTRUCTIONS TO VISIBILITY.

COZ001>005-013-030-031-250200-
...NORTHWEST COLORADO...

CITY           SKY/WX    TMP DP  RH WIND       PRES   REMARKS
CRAIG          CLOUDY    53  31  42 W9        29.74R
HAYDEN         MOCLDY    54  23  30 W14G20    29.74R
MEEKER         MOSUNNY   54  28  36 SW13      29.75R
MOUNT WERNER   NOT AVBL
STEAMBOAT SPGS MOCLDY    49  28  43 CALM      29.75S
WALDEN         CLOUDY    41  27  56 SW6       29.79S
$$

COZ006>008-011-250200-
...WEST CENTRAL VALLEYS...

CITY           SKY/WX    TMP DP  RH WIND       PRES   REMARKS
GRAND JUNCTION PTSUNNY   59  31  34 SE21      29.70S
MONTROSE       CLOUDY    57  27  31 NE3       29.80R
EAGLE          PTCLDY    52  28  40 W12       29.81F
RIFLE          PTCLDY    55  31  39 CALM      29.77F
DELTA          PTSUNNY   60  32  34 MISG      29.78F
NUCLA          PTSUNNY   55  28  35 SE10G16   29.84R
$$

COZ017>023-064>068-250200-
...SOUTHWEST COLORADO...

CITY           SKY/WX    TMP DP  RH WIND       PRES   REMARKS
DURANGO        CLOUDY    47  31  53 S8        29.89R
CORTEZ         MOSUNNY   58  26  29 SE6       29.83R
PAGOSA SPRINGS CLOUDY    45  25  45 W10       29.92R
TELLURIDE      LGT SNOW  35  32  89 E5        29.97S VSB 1   WCI  31
WOLF CREEK PAS NOT AVBL
$$

COZ009-010-012-014-032>034-037-058>063-250200-
...CENTRAL COLORADO...

CITY           SKY/WX    TMP DP  RH WIND       PRES   REMARKS
ASPEN          MOCLDY    43  31  62 S5        29.84F
BUENA VISTA    MOCLDY    42  27  55 W10G24    29.82R
COPPER MTN     MOCLDY    30  21  69 W14G22    29.94R WCI  20
BERTHOUD PASS  CLOUDY    21  14  73 NW28G35   29.91S VSB 1/4 WCI   3
COTTONWOOD PAS MOCLDY    39  23  52 W21G33    29.86R THUNDER
GUNNISON       MOCLDY    43  27  52 N6        29.89R
KREMMLING      MOCLDY    50  27  40 SW9       29.81R
LEADVILLE      MOCLDY    35  19  52 N6        29.87F WCI  30
MONARCH PASS   MOCLDY    27  21  80 MISG      30.03S
SALIDA         MOCLDY    51  21  30 W18G30    29.87S
SUNLIGHT       MOCLDY    32  30  93 CALM      29.96R
WILKERSON PASS CLOUDY    30  23  74 N8G16     29.91S THUNDER WCI  23
$$

COZ069>075-250200-
...SAN LUIS VALLEY/SANGRE DE CRISTO MOUNTAINS...

CITY           SKY/WX    TMP DP  RH WIND       PRES   REMARKS
ALAMOSA        MOCLDY    50  22  33 NW9       29.83R
LA VETA PASS   CLOUDY    34  23  64 SW9G20    29.86S WCI  26
SAGUACHE       MOCLDY    45  23  42 NW15G25   29.84S
$$

COZ035-036-038>040-250200-
...NORTHERN COLORADO FRONT RANGE...

CITY           SKY/WX    TMP DP  RH WIND       PRES   REMARKS
DENVER INTL AP CLOUDY    57  31  37 W10       29.66R
DMNS CITY PARK   N/A     55  32  41 SW7       29.66S
AURORA         MOCLDY    56  32  40 W12       29.68R
FRONT RANGE AP MOCLDY    57  36  44 MISG      29.68R
ERIE MUNI ARPT CLOUDY    55  32  41 W6        29.65F
BOULDER MUN AP CLOUDY    55  32  41 CALM      29.65F
CENTENNIAL     CLOUDY    54  31  41 NW14G21   29.69R
BROOMFIELD     MOCLDY    55  32  41 NW9       29.68S
FORT COLLINS   CLOUDY    55  37  50 NW10      29.67R
LONGMONT       CLOUDY    58  35  40 CALM      29.66S
$$

COZ041-046-047-076>085-087-088-250200-
...PIKES PEAK/PALMER DIVIDE AND SOUTHERN FOOTHILLS...

CITY           SKY/WX    TMP DP  RH WIND       PRES   REMARKS
COLO. SPRINGS  LGT RAIN  53  30  41 NW14G24   29.73R
A. F. ACADEMY  CLOUDY    50  30  46 NW13G22   29.73R
ELLICOTT       MOCLDY   N/A N/A N/A NE10      29.69R
FALCON         MOCLDY    47  32  56 N13       29.74R
FORT CARSON    CLOUDY    56  30  36 N16G23    29.69R
LIMON          LGT RAIN  47  39  74 W26G33    29.70R
MONUMENT HILL  CLOUDY    46  30  53 W6        29.73S
TRINIDAD       CLOUDY    59  23  25 W21G30    29.68R
$$

COZ042>045-048>051-090-091-250200-
...NORTHEAST COLORADO...

CITY           SKY/WX    TMP DP  RH WIND       PRES   REMARKS
GREELEY ARPT   MOCLDY    61  30  31 W12       29.63S
AKRON          MOCLDY    53  37  54 W3        29.61S
BURLINGTON     CLOUDY    55  39  54 N10G23    29.58R
WRAY           CLOUDY    57  46  65 NE3       29.56S
STERLING       MOCLDY    59  36  41 NW14      29.56F
HOLYOKE        CLOUDY    59  50  72 CALM      29.56F
FORT MORGAN    MOCLDY    58  35  41 N9        29.62R
$$

COZ086-089-092>099-250200-
...SOUTHEAST COLORADO...

CITY           SKY/WX    TMP DP  RH WIND       PRES   REMARKS
PUEBLO         CLOUDY    56  39  53 N3        29.63S
LA JUNTA       CLOUDY    65  32  29 NW16      29.59R
LAMAR          MOCLDY    62  38  40 N10       29.55R
SPRINGFIELD      N/A     61  34  36 W12G22    29.56R
$$



USA.gov is the U.S. government's official web portal to all federal, state and local government web resources and services.